Flight Track Log - Related Links

Times and Time Zones

All times are in EST time to prevent confusion due to time zone crossing. See the SCX8801 flight status page for this flight to view local times or setup timezone preferences in your user account.

Time Position Orientation Groundspeed Altitude Reporting Facility
EST Latitude Longitude Course Direction KTS MPH feet Rate Location/Type
Tue 07:27:09 AM 44.8667 -93.1667 109° East 165 190 2,300  Level Minneapolis TRACON
Tue 07:28:03 AM 44.8500 -93.1000 109° East 222 255 4,700 2,163 Climbing Minneapolis TRACON
Tue 07:28:35 AM 44.8444 -93.0581 101° East 228 262 5,400 2,258 Climbing Minneapolis Center
Tue 07:29:36 AM 44.8089 -92.9550 116° Southeast 286 329 8,200 2,656 Climbing Minneapolis Center
Tue 07:30:37 AM 44.7714 -92.8414 115° Southeast 315 362 10,800 2,479 Climbing Minneapolis Center
Tue 07:31:37 AM 44.7275 -92.7119 115° Southeast 365 420 13,200 2,579 Climbing Minneapolis Center
Tue 07:32:38 AM 44.6811 -92.5758 116° Southeast 383 441 16,000 2,579 Climbing Minneapolis Center
Tue 07:33:38 AM 44.6322 -92.4303 115° Southeast 407 468 18,400 2,380 Climbing Minneapolis Center
Tue 07:34:39 AM 44.5806 -92.2811 116° Southeast 421 484 20,800 2,410 Climbing Minneapolis Center
Tue 07:35:40 AM 44.5178 -92.1333 121° Southeast 441 507 23,300 1,761 Climbing Minneapolis Center
Tue 07:41:45 AM 44.1091 -91.1671 118° Southeast 497 572 33,300 1,546 Climbing FlightAware ADS-B (LPVM)
Tue 07:43:14 AM 44.0026 -90.8939 118° Southeast 498 573 35,000 1,116 Climbing FlightAware ADS-B (LPVM)
Tue 07:43:54 AM 43.9582 -90.7809 119° Southeast 503 579 35,700 1,111 Climbing FlightAware ADS-B (LPVM)
Tue 07:44:35 AM 43.9124 -90.6652 119° Southeast 502 578 36,500 947 Climbing FlightAware ADS-B (LPVM)
Tue 07:45:10 AM 43.8787 -90.5802 119° Southeast 504 580 36,900 155 Climbing FlightAware ADS-B (LPVM)
Tue 07:47:49 AM 43.6941 -90.1170 119° Southeast 503 579 37,000 27 Climbing FlightAware ADS-B
Tue 07:48:56 AM 43.6941 -90.1170 119° Southeast 500 575 37,000  Level FlightAware ADS-B
Tue 07:50:04 AM 43.5447 -89.7422 112° Southeast 501 577 37,000  Level FlightAware ADS-B
Tue 07:50:49 AM 43.5075 -89.6134 112° Southeast 500 575 37,000  Level FlightAware ADS-B
Tue 07:51:20 AM 43.4796 -89.5159 111° Southeast 501 577 37,000  Level FlightAware ADS-B
Tue 07:51:50 AM 43.4541 -89.4267 112° Southeast 500 575 37,000  Level FlightAware ADS-B (KMSN)
Tue 07:52:26 AM 43.4236 -89.3211 112° Southeast 500 575 37,000  Level FlightAware ADS-B
Tue 07:53:00 AM 43.3965 -89.2278 112° Southeast 502 578 37,000  Level FlightAware ADS-B
Tue 07:53:44 AM 43.3606 -89.1043 112° Southeast 503 579 37,000  Level FlightAware ADS-B (KMSN)
Tue 07:54:24 AM 43.3213 -88.9701 112° Southeast 503 579 37,000  Level FlightAware ADS-B
Tue 07:54:58 AM 43.2925 -88.8719 112° Southeast 504 580 37,000  Level FlightAware ADS-B
Tue 07:55:37 AM 43.2578 -88.7549 112° Southeast 505 581 37,000  Level FlightAware ADS-B
Tue 07:56:12 AM 43.2290 -88.6578 112° Southeast 506 582 37,000  Level FlightAware ADS-B
Tue 07:56:43 AM 43.2000 -88.5605 112° Southeast 508 585 37,000  Level FlightAware ADS-B
Tue 07:57:16 AM 43.1699 -88.4607 112° Southeast 509 586 37,000  Level FlightAware ADS-B
Tue 07:57:47 AM 43.1432 -88.3720 112° Southeast 512 589 37,000  Level FlightAware ADS-B
Tue 07:58:21 AM 43.1172 -88.2672 104° East 515 593 37,000  Level FlightAware ADS-B
Tue 07:58:31 AM 43.1150 -88.2539 100° East 516 594 37,000  Level FlightAware ADS-B (KMSN)
Tue 07:59:05 AM 43.0998 -88.1234 98° East 517 595 37,000  Level FlightAware ADS-B (KMSN)
Tue 07:59:56 AM 43.0827 -87.9631 98° East 519 597 37,000  Level FlightAware ADS-B
Tue 08:00:45 AM 43.0718 -87.8642 99° East 519 597 37,000  Level FlightAware ADS-B
Tue 08:01:22 AM 43.0521 -87.6851 99° East 519 597 37,000  Level FlightAware ADS-B
Tue 08:01:52 AM 43.0411 -87.5863 99° East 518 596 37,000  Level FlightAware ADS-B
Tue 08:02:27 AM 43.0301 -87.4889 99° East 517 595 37,000  Level FlightAware ADS-B
Tue 08:03:07 AM 43.0140 -87.3487 99° East 516 594 37,000  Level FlightAware ADS-B
Tue 08:04:45 AM 42.9781 -87.0382 99° East 514 592 37,000  Level FlightAware ADS-B
Tue 08:05:15 AM 42.9661 -86.9358 99° East 515 593 37,000  Level FlightAware ADS-B
Tue 08:05:50 AM 42.9533 -86.8289 99° East 515 593 37,000  Level FlightAware ADS-B
Tue 08:06:20 AM 42.9410 -86.7272 99° East 516 594 37,000  Level FlightAware ADS-B
Tue 08:06:51 AM 42.9287 -86.6246 99° East 517 595 37,000  Level FlightAware ADS-B
Tue 08:07:22 AM 42.9169 -86.5270 100° East 517 595 37,000  Level FlightAware ADS-B
Tue 08:07:57 AM 42.9031 -86.4133 99° East 518 596 37,000  Level FlightAware ADS-B
Tue 08:08:28 AM 42.8941 -86.3387 99° East 518 596 37,000  Level FlightAware ADS-B
Tue 08:09:04 AM 42.8769 -86.1999 100° East 518 596 37,000  Level FlightAware ADS-B
Tue 08:09:56 AM 42.8561 -86.0344 100° East 518 596 37,000  Level FlightAware ADS-B
Tue 08:11:03 AM 42.8289 -85.8207 100° East 517 595 37,000  Level FlightAware ADS-B
Tue 08:13:16 AM 42.7560 -85.4091 116° Southeast 512 589 37,000  Level FlightAware ADS-B
Tue 08:13:48 AM 42.7225 -85.3136 116° Southeast 511 588 37,000  Level FlightAware ADS-B
Tue 08:14:24 AM 42.6861 -85.2107 116° Southeast 511 588 37,000  Level FlightAware ADS-B
Tue 08:15:19 AM 42.6286 -85.0491 116° Southeast 513 590 37,000  Level FlightAware ADS-B
Tue 08:15:50 AM 42.5961 -84.9572 116° Southeast 512 589 37,000  Level FlightAware ADS-B
Tue 08:16:40 AM 42.5447 -84.8122 116° Southeast 512 589 37,000  Level FlightAware ADS-B
Tue 08:17:56 AM 42.4676 -84.5971 116° Southeast 512 589 37,000  Level FlightAware ADS-B
Tue 08:18:30 AM 42.4313 -84.4974 116° Southeast 511 588 37,000  Level FlightAware ADS-B
Tue 08:19:35 AM 42.3636 -84.3110 116° Southeast 513 590 37,000  Level FlightAware ADS-B
Tue 08:21:05 AM 42.2684 -84.0513 116° Southeast 515 593 37,000  Level FlightAware ADS-B
Tue 08:25:54 AM 41.9424 -83.2555 125° Southeast 510 587 37,000  Level FlightAware ADS-B (CYYZ)
Tue 08:26:25 AM 41.9002 -83.1749 125° Southeast 510 587 37,000  Level FlightAware ADS-B (CYYZ)
Tue 08:26:54 AM 41.8570 -83.0930 125° Southeast 510 587 37,000  Level FlightAware ADS-B (CYYZ)
Tue 08:27:25 AM 41.8153 -83.0144 125° Southeast 511 588 37,000  Level FlightAware ADS-B (CYYZ)
Tue 08:27:54 AM 41.7743 -82.9373 125° Southeast 511 588 37,000  Level FlightAware ADS-B (CYYZ)
Tue 08:28:24 AM 41.7337 -82.8615 125° Southeast 511 588 37,000  Level FlightAware ADS-B (CYYZ)
Tue 08:28:54 AM 41.6943 -82.7876 125° Southeast 511 588 37,000  Level FlightAware ADS-B (CYYZ)
Tue 08:29:24 AM 41.6512 -82.7065 125° Southeast 511 588 37,000  Level FlightAware ADS-B (CYYZ)
Tue 08:29:55 AM 41.6103 -82.6296 125° Southeast 511 588 37,000  Level FlightAware ADS-B (CYYZ)
Tue 08:30:25 AM 41.5704 -82.5552 125° Southeast 510 587 37,000  Level FlightAware ADS-B (CYYZ)
Tue 08:30:53 AM 41.5293 -82.4789 125° Southeast 509 586 37,000  Level FlightAware ADS-B (CYYZ)
Tue 08:31:24 AM 41.4873 -82.4007 125° Southeast 508 585 37,000  Level FlightAware ADS-B (CYYZ)
Tue 08:31:49 AM 41.4649 -82.3592 125° Southeast 507 583 37,000  Level FlightAware ADS-B (CYYZ)
Tue 08:32:57 AM 41.3619 -82.1761 133° Southeast 495 570 37,000  Level FlightAware ADS-B (CYYZ)
Tue 08:38:29 AM 40.7783 -81.5722 142° Southeast 483 556 37,000  Level Cleveland Center
Tue 08:39:31 AM 40.6700 -81.4647 143° Southeast 483 556 37,000  Level Cleveland Center
Tue 08:40:33 AM 40.5725 -81.3653 142° Southeast 483 556 37,000  Level Cleveland Center
Tue 08:41:35 AM 40.4656 -81.2589 143° Southeast 483 556 37,000  Level Cleveland Center
Tue 08:42:37 AM 40.3361 -81.1306 143° Southeast 486 559 37,000  Level Cleveland Center
Tue 08:43:39 AM 40.2278 -81.0239 143° Southeast 487 560 37,000  Level Cleveland Center
Tue 08:44:41 AM 40.1203 -80.9186 143° Southeast 487 560 37,000  Level Cleveland Center
Tue 08:45:43 AM 40.0136 -80.8122 143° Southeast 488 562 37,000  Level Cleveland Center
Tue 08:46:45 AM 39.9208 -80.6758 132° Southeast 505 581 37,000  Level Cleveland Center
Tue 08:47:47 AM 39.8344 -80.4828 120° Southeast 518 596 37,000  Level Cleveland Center
Tue 08:48:49 AM 39.7603 -80.3244 121° Southeast 518 596 37,000  Level Cleveland Center
Tue 08:49:51 AM 39.6869 -80.1678 121° Southeast 515 593 37,000  Level Cleveland Center
Tue 08:50:53 AM 39.6133 -80.0103 121° Southeast 515 593 37,000 -726 Level Cleveland Center
Tue 08:51:55 AM 39.5386 -79.8564 122° Southeast 513 590 35,500 -2,041 Descending Cleveland Center
Tue 08:52:30 AM 39.4978 -79.7575 118° Southeast 513 590 33,700 -2,839 Descending Washington Center
Tue 08:53:28 AM 39.4219 -79.6000 122° Southeast 513 590 31,100 -1,424 Descending Washington Center
Tue 08:54:28 AM 39.3481 -79.4403 121° Southeast 513 590 30,900 -1,190 Descending Washington Center
Tue 08:55:29 AM 39.2736 -79.2861 122° Southeast 513 590 28,700 -2,083 Descending Washington Center
Tue 08:56:29 AM 39.2308 -79.1125 108° East 495 570 26,700 -2,083 Descending Washington Center
Tue 08:57:30 AM 39.2172 -78.9322 96° East 495 570 24,500 -2,218 Descending Washington Center
Tue 08:58:28 AM 39.2031 -78.7631 96° East 489 563 22,300 -2,136 Descending Washington Center
Tue 08:59:28 AM 39.1883 -78.6042 97° East 468 539 20,300 -1,983 Descending Washington Center
Tue 09:00:29 AM 39.1711 -78.4564 99° East 440 506 18,300 -1,672 Descending Washington Center
Tue 09:01:30 AM 39.1514 -78.3164 100° East 413 475 16,900 -843 Descending Washington Center
Tue 09:02:30 AM 39.1189 -78.1867 108° East 389 448 16,600 -1,077 Descending Washington Center
Tue 09:03:27 AM 39.0881 -78.0653 108° East 370 426 14,800 -1,815 Descending Washington Center
Tue 09:04:29 AM 39.0572 -77.9439 108° East 358 412 13,000 -1,279 Descending Washington Center
Tue 09:05:29 AM 39.0261 -77.8228 108° East 337 388 12,200 -1,008 Descending Washington Center
Tue 09:06:28 AM 39.0028 -77.7311 108° East 310 357 11,000 -1,109 Descending Washington Center
Tue 09:07:28 AM 38.9714 -77.6233 111° Southeast 299 344 10,000 -1,000 Descending Washington Center
Tue 09:08:46 AM 38.9333 -77.5000 112° Southeast 283 326 8,700 -907 Descending Potomac TRACON
Tue 09:14:38 AM 38.7516 -77.1137 167° South 190 219 3,500 -815 Descending FlightAware ADS-B
Tue 09:15:09 AM 38.7251 -77.1114 177° South 178 205 3,500  Level FlightAware ADS-B
Tue 09:16:42 AM 38.6493 -77.1074 177° South 177 204 3,500 -270 Level FlightAware ADS-B
Tue 09:20:42 AM 38.5688 -77.0212 North 154 177 2,000 -288 Descending FlightAware ADS-B
Tue 09:21:55 AM 38.6201 -77.0137 360° North 151 174 2,000  Level FlightAware ADS-B
Tue 09:22:55 AM 38.6620 -77.0189 355° North 152 175 2,000  Level FlightAware ADS-B
Tue 09:23:54 AM 38.7038 -77.0229 355° North 153 176 2,000 -305 Level FlightAware ADS-B
Tue 09:24:53 AM 38.7434 -77.0270 356° North 155 178 1,400 -650 Descending FlightAware ADS-B
Tue 09:25:54 AM 38.7871 -77.0313 355° North 140 161 700 -689 Descending FlightAware ADS-B
Tue 09:27:04 AM 38.8282 -77.0354 356° North 131 151 -600 Descending FlightAware ADS-B

Login

Don't have an account? Register now (free) for customized features, flight alerts, and more!